| time (UTC) | temp F | wind direction | speed MPH | gust MPH | rain 1hr in | rain 24hr in | rain mn in | humidity % | barometer mb |
| 20260506213013 | 60 | 215 | 1.0 | 3.0 | 0.00 | 0.26 | 0.26 | 94 | 1003.9 |
| 20260506211512 | 60 | 194 | 0.0 | 2.0 | 0.00 | 0.26 | 0.26 | 93 | 1003.7 |
| 20260506210022 | 60 | 194 | 0.0 | 3.0 | 0.00 | 0.26 | 0.26 | 93 | 1003.8 |
| 20260506204511 | 60 | 235 | 2.0 | 5.0 | 0.01 | 0.26 | 0.26 | 93 | 1003.8 |
| 20260506203011 | 60 | 311 | 0.0 | 4.0 | 0.02 | 0.26 | 0.26 | 93 | 1003.9 |
| 20260506201513 | 60 | 268 | 0.0 | 8.0 | 0.03 | 0.26 | 0.26 | 93 | 1003.8 |
| 20260506200007 | 60 | 253 | 1.0 | 7.0 | 0.07 | 0.26 | 0.26 | 93 | 1004.0 |
| 20260506194507 | 60 | 213 | 1.0 | 6.0 | 0.07 | 0.25 | 0.25 | 93 | 1004.2 |
| 20260506193005 | 61 | 166 | 2.0 | 7.0 | 0.08 | 0.24 | 0.24 | 93 | 1004.3 |
| 20260506191507 | 61 | 191 | 1.0 | 5.0 | 0.09 | 0.23 | 0.23 | 92 | 1004.3 |
| 20260506190002 | 61 | 226 | 2.0 | 6.0 | 0.05 | 0.19 | 0.19 | 92 | 1004.4 |
| 20260506184504 | 61 | 200 | 1.0 | 5.0 | 0.05 | 0.18 | 0.18 | 92 | 1004.4 |
| 20260506183002 | 62 | 230 | 1.0 | 8.0 | 0.04 | 0.16 | 0.16 | 91 | 1004.4 |
| 20260506181604 | 62 | 155 | 2.0 | 8.0 | 0.03 | 0.14 | 0.14 | 91 | 1004.5 |
| 20260506180058 | 61 | 204 | 0.0 | 3.0 | 0.04 | 0.14 | 0.14 | 91 | 1004.6 |
| 20260506174557 | 61 | 207 | 2.0 | 5.0 | 0.06 | 0.13 | 0.13 | 90 | 1004.7 |
| 20260506173104 | 62 | 171 | 2.0 | 5.0 | 0.08 | 0.12 | 0.12 | 90 | 1004.8 |
| 20260506171555 | 62 | 111 | 1.0 | 9.0 | 0.09 | 0.11 | 0.11 | 90 | 1004.9 |
| 20260506170057 | 62 | 212 | 1.0 | 5.0 | 0.09 | 0.10 | 0.10 | 90 | 1005.3 |
| 20260506164558 | 62 | 173 | 1.0 | 5.0 | 0.07 | 0.07 | 0.07 | 89 | 1005.8 |
| 20260506163056 | 62 | 198 | 0.0 | 5.0 | 0.04 | 0.04 | 0.04 | 88 | 1006.0 |
| 20260506161547 | 62 | 204 | 0.0 | 5.0 | 0.02 | 0.02 | 0.02 | 86 | 1005.8 |
| 20260506160052 | 63 | 198 | 3.0 | 10.0 | 0.01 | 0.01 | 0.01 | 85 | 1006.1 |
| 20260506154543 | 63 | 117 | 0.0 | 9.0 | 0.00 | 0.00 | 0.00 | 83 | 1006.1 |
| 20260506153040 | 64 | 246 | 2.0 | 7.0 | 0.00 | 0.00 | 0.00 | 81 | 1006.2 |
| 20260506151540 | 64 | 148 | 3.0 | 11.0 | 0.00 | 0.00 | 0.00 | 79 | 1006.3 |
| 20260506150043 | 65 | 221 | 0.0 | 9.0 | 0.00 | 0.00 | 0.00 | 79 | 1006.5 |
| 20260506144537 | 64 | 215 | 4.0 | 7.0 | 0.00 | 0.00 | 0.00 | 78 | 1006.6 |
| 20260506143039 | 65 | 226 | 2.0 | 8.0 | 0.00 | 0.00 | 0.00 | 78 | 1006.7 |
| 20260506141541 | 65 | 153 | 4.0 | 10.0 | 0.00 | 0.00 | 0.00 | 77 | 1006.6 |
| 20260506140034 | 65 | 234 | 4.0 | 8.0 | 0.00 | 0.00 | 0.00 | 78 | 1006.7 |
| 20260506134532 | 64 | 219 | 0.0 | 4.0 | 0.00 | 0.00 | 0.00 | 79 | 1006.4 |
| 20260506133034 | 64 | 178 | 3.0 | 8.0 | 0.00 | 0.00 | 0.00 | 78 | 1006.3 |
| 20260506131531 | 64 | 218 | 1.0 | 9.0 | 0.00 | 0.00 | 0.00 | 80 | 1006.3 |
| 20260506130033 | 63 | 262 | 1.0 | 9.0 | 0.00 | 0.00 | 0.00 | 80 | 1006.3 |
| 20260506124531 | 63 | 269 | 3.0 | 7.0 | 0.00 | 0.00 | 0.00 | 81 | 1006.8 |
| 20260506123030 | 63 | 217 | 1.0 | 10.0 | 0.00 | 0.00 | 0.00 | 81 | 1006.8 |
| 20260506121530 | 62 | 227 | 4.0 | 9.0 | 0.00 | 0.00 | 0.00 | 81 | 1007.1 |
| 20260506120048 | 62 | 243 | 2.0 | 10.0 | 0.00 | 0.00 | 0.00 | 82 | 1007.0 |
| 20260506114532 | 61 | 218 | 3.0 | 11.0 | 0.00 | 0.00 | 0.00 | 81 | 1006.9 |
| 20260506113026 | 61 | 184 | 3.0 | 10.0 | 0.00 | 0.00 | 0.00 | 81 | 1006.8 |
| 20260506111526 | 61 | 223 | 4.0 | 11.0 | 0.00 | 0.00 | 0.00 | 81 | 1006.8 |
| 20260506110029 | 61 | 184 | 2.0 | 7.0 | 0.00 | 0.00 | 0.00 | 80 | 1006.8 |
| 20260506104536 | 61 | 176 | 1.0 | 9.0 | 0.00 | 0.00 | 0.00 | 80 | 1006.8 |
| 20260506103037 | 61 | 164 | 3.0 | 11.0 | 0.00 | 0.00 | 0.00 | 79 | 1006.9 |
| 20260506101522 | 61 | 210 | 2.0 | 8.0 | 0.00 | 0.00 | 0.00 | 79 | 1006.7 |
| 20260506100022 | 61 | 259 | 2.0 | 8.0 | 0.00 | 0.00 | 0.00 | 79 | 1006.6 |
| 20260506094519 | 61 | 224 | 2.0 | 9.0 | 0.00 | 0.00 | 0.00 | 78 | 1006.3 |
| 20260506093022 | 61 | 155 | 1.0 | 5.0 | 0.00 | 0.00 | 0.00 | 77 | 1006.4 |
| 20260506091518 | 61 | 190 | 2.0 | 7.0 | 0.00 | 0.00 | 0.00 | 76 | 1006.2 |
| 20260506090015 | 62 | 242 | 3.0 | 8.0 | 0.00 | 0.00 | 0.00 | 75 | 1006.5 |
| 20260506084528 | 62 | 238 | 0.0 | 9.0 | 0.00 | 0.00 | 0.00 | 73 | 1006.6 |
| 20260506083014 | 62 | 174 | 0.0 | 5.0 | 0.00 | 0.00 | 0.00 | 73 | 1006.6 |
| 20260506081515 | 61 | 269 | 2.0 | 6.0 | 0.00 | 0.00 | 0.00 | 76 | 1006.5 |
| 20260506073007 | 62 | 231 | 0.0 | 3.0 | 0.00 | 0.00 | 0.00 | 74 | 1006.7 |
| 20260506071503 | 62 | 210 | 0.0 | 5.0 | 0.00 | 0.00 | 0.00 | 74 | 1006.8 |
| 20260506061556 | 64 | 144 | 1.0 | 6.0 | 0.00 | 0.00 | 0.00 | 69 | 1007.1 |
| 20260506044542 | 67 | 323 | 0.0 | 3.0 | 0.00 | 0.00 | 0.00 | 62 | 1007.3 |
| 20260506043044 | 67 | 134 | 1.0 | 7.0 | 0.00 | 0.00 | 0.00 | 61 | 1007.0 |
| 20260506041537 | 68 | 229 | 1.0 | 5.0 | 0.00 | 0.00 | 0.00 | 59 | 1007.0 |
| 20260506040037 | 68 | 155 | 2.0 | 8.0 | 0.00 | 0.00 | 0.00 | 58 | 1006.9 |
| 20260506034534 | 69 | 144 | 0.0 | 4.0 | 0.00 | 0.00 | 0.00 | 56 | 1006.8 |
| 20260506033033 | 70 | 329 | 0.0 | 6.0 | 0.00 | 0.00 | 0.00 | 54 | 1006.9 |
| 20260506031540 | 70 | 148 | 3.0 | 10.0 | 0.00 | 0.00 | 0.00 | 52 | 1006.8 |
| 20260506030032 | 70 | 171 | 1.0 | 10.0 | 0.00 | 0.00 | 0.00 | 53 | 1006.8 |
| 20260506024536 | 70 | 213 | 0.0 | 4.0 | 0.00 | 0.00 | 0.00 | 54 | 1006.7 |
| 20260506023050 | 70 | 183 | 1.0 | 6.0 | 0.00 | 0.00 | 0.00 | 55 | 1006.9 |
| 20260506021555 | 70 | 172 | 1.0 | 10.0 | 0.00 | 0.00 | 0.00 | 54 | 1006.9 |
| 20260506020030 | 70 | 198 | 1.0 | 10.0 | 0.00 | 0.00 | 0.00 | 54 | 1006.9 |
| 20260506014529 | 71 | 222 | 3.0 | 7.0 | 0.00 | 0.00 | 0.00 | 54 | 1006.7 |
| 20260506013034 | 71 | 205 | 2.0 | 7.0 | 0.00 | 0.00 | 0.00 | 54 | 1006.6 |
| 20260506011529 | 71 | 219 | 2.0 | 4.0 | 0.00 | 0.00 | 0.00 | 53 | 1006.5 |
| 20260506010029 | 72 | 222 | 1.0 | 11.0 | 0.00 | 0.00 | 0.00 | 53 | 1006.3 |
| 20260506004529 | 72 | 247 | 0.0 | 10.0 | 0.00 | 0.00 | 0.00 | 53 | 1006.1 |
| 20260506003027 | 73 | 211 | 1.0 | 4.0 | 0.00 | 0.00 | 0.00 | 51 | 1005.9 |
| 20260506001526 | 74 | 221 | 1.0 | 8.0 | 0.00 | 0.00 | 0.00 | 50 | 1005.7 |
| 20260506000026 | 74 | 232 | 2.0 | 5.0 | 0.00 | 0.00 | 0.00 | 49 | 1005.5 |
| 20260505234526 | 74 | 193 | 0.0 | 3.0 | 0.00 | 0.00 | 0.00 | 48 | 1005.4 |
| 20260505233027 | 75 | 169 | 1.0 | 5.0 | 0.00 | 0.00 | 0.00 | 46 | 1005.1 |
| 20260505231538 | 75 | 225 | 2.0 | 11.0 | 0.00 | 0.00 | 0.00 | 45 | 1004.9 |
| 20260505230026 | 76 | 227 | 6.0 | 14.0 | 0.00 | 0.00 | 0.00 | 44 | 1004.6 |
| 20260505224523 | 76 | 213 | 3.0 | 9.0 | 0.00 | 0.00 | 0.00 | 44 | 1004.4 |
| 20260505223023 | 77 | 261 | 3.0 | 17.0 | 0.00 | 0.00 | 0.00 | 44 | 1004.3 |
| 20260505221523 | 77 | 163 | 3.0 | 12.0 | 0.00 | 0.00 | 0.00 | 44 | 1004.1 |
| 20260505220024 | 78 | 261 | 4.0 | 14.0 | 0.00 | 0.00 | 0.00 | 42 | 1004.0 |
| 20260505214522 | 79 | 209 | 4.0 | 11.0 | 0.00 | 0.00 | 0.00 | 41 | 1003.9 |